GFSCGP_925_temp_021.txt.gz
Temp
36 35 35 37 38 39 40 40 40 41 41 39 38 38 38 38 38 38 38 36 36 35 35 34 33 32 31 31 29 28 27 27 27 26 26 26 27 27 27 27 26 25 25 24
35 35 37 38 39 39 40 40 40 41 41 40 39 39 40 38 38 38 38 37 37 36 36 34 33 32 32 31 30 28 27 27 26 26 26 28 29 29 29 27 26 25 25 25
36 37 38 38 38 38 39 40 40 40 41 40 39 37 39 40 39 38 38 39 38 37 37 36 34 33 32 31 30 28 27 27 26 26 26 27 27 27 28 28 27 26 25 25
37 39 38 38 38 39 38 40 40 41 36 36 39 37 39 40 39 39 38 39 39 38 37 37 35 33 33 32 30 29 27 27 26 26 27 28 28 28 29 29 29 28 26 26
36 37 37 37 38 39 38 41 40 40 40 39 39 38 39 40 39 39 39 39 39 39 38 38 37 34 33 32 31 30 28 27 27 26 26 27 27 29 29 29 27 26 25 25
37 39 38 38 39 39 40 40 40 40 40 37 39 37 39 37 40 41 41 40 39 40 39 38 37 36 34 33 32 31 28 27 26 26 26 26 28 27 29 28 27 27 26 25
36 37 38 39 37 39 38 38 37 37 37 37 39 38 36 42 41 41 41 42 41 40 40 39 38 37 35 34 32 32 30 27 26 26 26 25 26 27 27 27 27 28 28 27
35 34 37 38 37 37 38 38 37 34 36 38 40 38 40 42 42 43 42 43 43 41 40 39 38 37 36 34 33 32 30 28 27 26 26 26 25 26 27 27 28 27 28 28
36 35 38 38 38 38 38 38 40 38 39 38 40 40 41 41 42 42 41 42 42 42 40 40 39 37 36 34 33 32 31 29 27 27 26 26 25 26 27 27 26 27 28 28
37 35 38 38 38 38 38 40 38 39 36 36 39 39 39 40 40 41 41 42 42 42 41 41 40 38 36 35 33 32 31 29 28 27 27 26 26 25 26 27 27 26 27 26
37 36 36 38 37 36 37 39 39 39 39 37 37 39 42 40 40 40 41 42 43 42 42 41 40 39 37 36 34 32 31 30 28 28 28 27 26 26 25 26 26 26 26 25
37 36 35 36 38 38 38 37 38 39 36 38 39 39 43 42 41 41 42 43 43 43 43 42 41 40 38 36 36 34 32 31 29 29 28 27 27 26 26 26 26 25 24 24
37 35 34 34 37 38 36 37 39 39 39 37 37 38 42 42 42 42 41 42 42 43 42 43 42 41 40 37 36 35 33 33 31 30 29 28 27 26 27 26 26 25 24 23
34 36 34 35 35 37 36 36 37 38 38 37 37 38 40 41 40 41 41 41 42 42 41 40 41 41 40 38 35 35 34 34 33 31 30 29 27 27 27 26 26 25 23 23
34 33 35 35 36 37 37 36 37 36 37 37 38 38 39 40 41 41 41 41 41 41 41 39 39 40 39 37 36 34 35 34 34 33 31 30 28 27 27 27 26 25 23 22
34 32 34 34 36 36 36 37 37 36 37 37 38 38 40 41 41 41 41 41 41 41 41 40 38 38 38 37 35 34 34 34 33 33 32 31 29 27 27 26 25 24 23 22
33 33 32 32 34 35 34 35 36 37 37 37 36 37 39 39 40 40 40 40 40 40 41 42 39 37 37 36 34 34 33 33 32 32 31 31 29 27 26 25 24 23 22 22
32 32 32 32 33 31 35 37 37 36 37 38 38 38 38 38 39 40 40 40 40 41 41 42 40 38 37 36 35 33 32 32 31 30 30 30 29 27 25 24 24 22 21 22
32 32 31 31 32 33 34 35 35 34 35 37 38 38 39 39 39 39 40 41 41 41 41 42 41 39 37 36 35 33 32 31 30 29 29 29 28 27 25 24 23 22 21 21
31 31 32 31 31 31 34 32 32 33 33 36 36 36 37 38 37 39 40 40 41 41 40 40 41 39 37 35 34 32 31 30 30 29 28 28 27 26 25 24 23 22 21 21
29 29 29 31 31 33 31 32 32 31 32 31 32 33 34 35 38 39 40 40 40 39 38 38 38 38 35 34 33 31 31 30 29 29 28 27 26 26 24 23 22 21 20 20
29 29 30 31 31 30 31 32 31 29 30 31 32 33 33 34 37 39 35 35 35 36 36 36 36 35 33 32 31 30 30 29 29 29 28 26 25 25 24 22 22 20 20 19
30 31 31 32 33 29 29 29 29 29 29 30 32 33 34 35 35 34 33 33 34 34 34 34 33 31 31 29 30 29 29 28 28 27 26 25 24 24 22 21 19 19 19 20
32 33 33 29 27 26 28 27 28 29 29 31 32 33 33 33 32 32 32 32 32 32 32 31 30 30 29 29 28 26 26 26 26 25 23 22 20 21 20 19 19 19 19 20
17 19 29 28 27 26 26 26 27 28 29 29 28 29 29 29 29 29 29 30 30 31 30 30 29 28 26 26 25 25 25 24 24 22 21 20 19 20 19 18 20 20 19 20
15 17 18 26 27 27 23 25 26 27 27 28 28 28 27 27 27 27 26 27 29 29 28 28 27 26 25 25 24 24 24 23 23 22 22 21 20 21 21 20 18 18 19 19

GFSCGP_925_temp_024.txt.gz
Temp
35 34 34 36 37 38 39 39 39 40 39 40 37 29 27 32 37 38 37 37 36 36 36 35 34 33 32 31 30 29 29 29 27 27 26 26 25 25 27 27 27 25 25 25
35 34 36 38 38 38 38 39 40 41 38 39 39 35 33 37 38 39 38 37 37 36 36 35 34 33 32 31 30 29 28 28 28 27 27 26 26 26 27 27 27 26 25 25
35 36 38 38 38 37 38 38 39 40 40 40 40 39 39 39 39 39 39 39 38 37 36 35 34 33 33 31 30 29 28 27 27 27 27 26 26 27 28 27 27 26 25 25
36 38 37 37 37 38 37 40 40 40 39 37 39 37 38 39 38 38 39 39 39 38 37 37 35 34 33 32 30 28 27 27 26 27 26 27 27 28 29 28 28 26 26 25
35 37 37 37 38 39 38 40 40 40 39 38 36 36 38 38 38 39 39 39 40 39 38 38 36 34 33 33 31 29 27 27 26 26 26 27 28 28 28 29 28 26 26 26
37 39 39 39 39 39 40 39 40 40 40 36 38 36 37 38 35 38 40 40 40 40 39 38 38 35 34 33 32 30 27 27 26 26 26 27 27 28 29 29 27 27 25 25
36 37 39 39 38 39 39 38 37 36 37 37 40 37 37 39 39 40 38 36 41 41 40 38 38 37 34 33 33 31 28 27 26 26 25 27 26 27 28 28 27 27 26 25
34 34 37 39 38 38 38 38 37 34 36 37 40 39 39 39 40 38 36 36 42 41 40 39 37 37 35 34 33 32 29 27 26 26 26 25 27 26 27 27 28 28 28 27
36 35 39 39 39 39 38 37 39 38 38 38 40 40 42 41 40 39 39 41 42 41 41 40 39 38 37 34 33 32 29 27 27 26 26 26 26 26 26 27 27 27 28 28
36 35 38 39 39 39 38 39 37 37 35 35 39 38 39 39 35 37 40 41 42 42 41 41 40 38 37 35 33 32 31 28 27 27 26 26 25 25 26 27 27 27 27 28
37 37 37 39 37 37 37 37 38 38 38 37 37 39 42 41 39 40 40 41 42 43 42 41 40 39 37 36 34 32 31 29 27 27 26 26 26 25 25 26 27 27 27 27
37 36 35 37 39 39 38 37 37 36 35 38 38 39 43 42 41 41 41 42 42 42 43 42 41 39 37 36 35 33 32 31 28 27 27 26 26 26 25 25 27 27 26 27
38 35 34 35 38 39 38 38 38 38 38 36 37 38 41 41 39 39 41 41 40 40 41 42 41 39 37 36 35 34 32 31 30 28 27 27 26 26 26 25 26 26 26 26
36 37 34 35 35 37 37 37 38 38 36 37 38 38 39 40 39 39 40 41 42 41 41 41 41 39 38 36 35 34 33 32 31 29 28 28 27 26 26 26 25 26 25 25
36 34 36 36 36 38 37 37 37 36 37 36 38 38 39 40 39 40 40 41 41 40 40 38 40 40 37 36 34 34 34 33 32 31 29 28 28 27 26 26 26 25 25 24
35 32 34 35 36 36 36 38 38 37 37 37 38 38 40 41 41 40 37 39 39 39 40 39 37 37 37 36 34 34 34 33 33 32 30 29 28 27 27 26 26 26 25 24
33 33 32 32 35 36 35 36 37 38 38 37 36 37 39 39 39 39 38 39 39 39 39 39 38 36 35 37 35 34 34 34 33 32 31 30 29 28 27 26 26 26 25 23
32 31 32 32 33 31 35 38 38 38 38 38 38 38 38 38 38 39 38 38 37 40 40 40 41 38 37 38 37 35 34 33 32 32 31 31 29 28 27 26 26 25 25 24
34 32 31 31 32 33 35 36 37 36 36 38 38 38 39 39 39 38 39 39 39 38 39 39 41 41 38 37 37 35 33 33 33 31 31 31 29 28 27 26 25 25 24 23
33 32 32 31 31 31 34 37 37 36 33 37 36 36 36 36 35 37 38 39 39 39 39 39 40 40 40 37 37 34 33 32 32 31 31 30 29 28 26 26 25 24 23 22
29 30 30 30 30 32 33 35 35 31 32 33 33 34 34 34 35 34 36 36 39 38 38 39 39 38 37 36 36 32 32 31 31 31 30 29 28 27 26 25 24 23 22 22
27 28 29 30 30 29 34 33 30 32 32 32 32 33 33 34 34 35 35 36 36 36 38 37 37 37 36 35 33 31 31 30 30 29 28 28 27 26 25 24 23 22 22 21
27 29 29 30 31 28 30 30 31 32 31 31 32 33 34 34 34 36 35 35 35 35 35 37 36 32 33 32 31 30 29 29 29 28 27 27 26 25 24 23 22 21 21 20
28 29 28 28 30 30 30 30 31 31 31 32 32 32 34 34 34 33 33 33 34 33 32 32 31 29 29 29 29 28 28 28 28 27 25 24 23 22 21 21 20 20 19 19
19 20 27 29 29 27 29 29 30 30 29 27 26 26 26 27 28 29 30 29 30 30 30 28 28 28 27 27 27 26 27 26 24 22 22 22 21 21 20 19 20 19 19 20
17 19 20 22 20 23 26 28 29 27 27 28 27 26 25 23 21 22 25 27 28 27 27 26 26 25 25 25 25 25 24 23 22 21 21 21 20 20 18 18 18 18 19 20

GFSCGP_925_temp_030.txt.gz
Temp
28 26 27 27 27 29 30 30 29 31 35 32 31 32 31 31 30 30 29 29 29 30 30 29 28 27 27 27 27 26 26 26 26 26 26 26 26 26 26 26 26 26 26 25
27 27 27 29 29 30 30 30 30 31 33 32 30 32 32 31 31 30 30 29 30 30 30 29 28 27 28 27 26 26 26 26 26 27 26 26 26 26 26 26 26 26 25 25
27 28 30 30 30 30 30 30 31 31 32 34 31 30 31 31 31 31 31 31 30 30 30 29 29 28 28 27 26 26 26 26 26 26 26 25 25 25 25 25 26 26 25 25
27 29 30 30 30 30 27 32 33 32 31 31 32 28 29 30 30 30 31 31 31 30 31 30 30 28 28 27 27 27 27 27 26 26 25 25 25 25 26 26 26 26 26 25
27 30 30 30 31 31 30 32 31 32 30 31 31 27 27 28 29 29 30 31 31 31 31 30 30 30 29 28 27 27 27 27 27 26 25 25 25 26 27 26 25 26 26 25
30 31 31 31 32 32 32 31 30 31 28 27 30 31 27 31 30 31 31 32 32 32 31 31 31 31 29 28 27 26 26 26 26 26 26 26 25 26 26 26 25 25 25 25
30 30 31 32 30 31 31 28 26 28 28 28 28 28 31 32 32 33 33 32 33 33 32 31 30 30 30 28 27 26 26 25 25 26 26 26 26 27 26 26 26 25 25 25
27 27 30 31 31 30 28 30 27 26 26 27 28 28 32 33 33 34 35 34 34 33 33 32 31 30 30 29 27 26 25 25 25 25 25 26 26 27 26 26 26 26 26 25
25 27 31 32 32 32 29 29 30 27 27 27 28 29 31 32 32 34 35 34 34 34 33 33 31 31 31 29 27 26 25 25 25 25 26 26 26 26 26 26 26 27 26 26
28 26 29 32 32 32 32 28 30 24 28 28 28 29 31 31 32 31 34 35 35 34 34 34 33 31 31 30 28 27 26 26 25 25 25 25 26 25 26 26 25 26 26 26
30 26 29 30 30 30 31 30 28 28 27 29 26 31 30 31 30 31 33 34 34 34 33 34 34 33 32 30 29 27 25 26 25 25 25 25 25 25 25 26 26 26 26 26
27 28 28 29 30 32 32 31 28 30 26 25 31 32 35 32 31 31 33 34 35 35 32 34 34 34 32 30 29 27 25 25 25 25 25 24 25 24 25 25 26 25 26 26
21 26 27 27 29 30 29 30 32 24 24 29 27 30 31 31 31 30 31 32 32 31 31 31 32 33 31 30 30 28 26 26 25 25 25 24 24 24 24 25 25 25 26 26
18 22 25 29 29 30 28 31 30 31 30 29 30 30 31 32 31 29 31 33 32 32 32 32 31 32 32 31 30 29 28 26 26 25 25 24 24 24 24 24 24 25 25 26
15 16 24 24 29 32 31 31 32 30 32 31 31 29 29 29 31 30 30 32 33 34 34 34 34 33 32 31 30 29 28 27 26 25 25 25 24 24 24 24 24 24 24 24
14 16 18 22 28 31 31 32 32 32 32 32 29 29 29 31 28 31 30 31 32 31 32 29 34 34 32 31 30 29 29 27 26 26 25 25 24 24 24 23 23 23 23 24
14 15 17 19 26 30 30 32 31 31 32 32 30 30 28 30 30 29 28 29 32 31 32 28 31 34 33 32 31 30 29 28 27 26 26 25 25 24 24 23 23 23 23 23
16 16 16 18 21 26 32 33 34 31 31 31 32 30 30 31 29 30 29 30 31 32 32 29 29 32 33 33 31 30 29 28 27 27 26 25 25 24 24 23 23 23 22 22
18 19 18 19 20 27 31 30 32 29 30 30 30 30 31 30 28 29 30 31 32 31 29 30 29 31 32 32 31 30 29 28 28 27 26 26 25 24 24 23 23 23 22 22
21 21 20 21 22 24 29 31 31 30 27 29 29 28 29 28 26 25 29 31 32 31 28 29 31 30 32 32 31 30 29 28 28 27 27 26 25 25 24 24 23 23 23 23
18 17 19 20 22 23 25 31 31 28 27 29 28 27 27 27 25 27 27 30 31 31 33 30 30 28 31 32 31 30 29 28 29 28 28 27 26 25 25 24 23 23 23 23
17 17 18 21 21 24 24 24 29 25 25 26 27 27 25 25 25 25 26 28 27 30 31 33 28 26 33 29 30 29 28 29 29 29 28 27 26 25 25 24 23 23 22 22
16 18 18 18 19 19 20 20 21 22 22 22 23 24 24 23 22 23 22 22 22 23 22 24 26 25 26 30 29 28 29 29 29 28 27 26 25 25 24 24 22 22 21 21
18 17 18 19 21 18 17 18 21 21 20 21 21 21 23 22 22 22 22 21 21 21 22 22 22 22 23 27 29 29 29 28 27 27 25 24 24 23 23 22 22 21 20 20
17 17 17 17 19 17 18 17 18 20 21 21 20 20 20 20 19 21 20 21 21 20 20 21 21 22 22 22 24 27 26 26 24 23 23 22 21 21 20 19 20 20 20 20
14 15 17 18 16 16 15 16 20 20 20 20 20 20 19 19 18 19 18 19 20 20 21 20 20 20 21 21 20 21 22 23 22 20 19 19 17 16 15 16 16 18 20 20

GFSCGP_925_temp_033.txt.gz
Temp
25 24 23 25 25 27 29 29 28 29 32 32 29 28 29 29 29 29 28 28 27 27 27 27 26 26 25 25 24 24 24 25 25 23 24 24 24 25 25 25 25 25 25 25
25 25 25 26 26 27 27 28 28 29 31 31 30 29 29 29 29 29 29 29 28 28 27 27 26 26 25 25 25 24 24 24 25 25 25 24 25 26 26 26 25 25 25 25
26 26 27 27 27 27 26 27 29 29 30 31 28 28 28 29 29 29 29 29 29 29 28 26 27 26 26 25 25 25 24 25 25 25 25 24 25 25 25 25 25 25 25 25
25 27 28 27 27 27 25 28 30 30 29 28 29 26 26 28 28 29 28 28 29 29 29 29 26 26 26 25 25 25 24 25 25 25 25 24 25 25 25 25 26 26 25 25
26 26 28 27 28 28 28 30 29 30 29 28 29 27 26 28 28 28 29 29 29 29 29 29 28 27 27 27 25 25 25 25 24 25 25 24 24 26 26 26 25 25 25 25
28 28 29 28 29 29 30 30 28 28 25 25 29 27 29 28 29 29 30 30 30 30 30 29 30 29 27 27 26 25 24 24 24 25 25 24 24 25 25 25 25 25 25 25
27 28 28 29 27 28 28 25 24 25 24 26 27 26 30 29 31 32 31 30 31 30 30 30 29 29 28 27 26 25 24 23 24 24 24 25 25 25 26 26 25 25 25 24
25 25 28 28 28 27 25 26 21 24 24 26 26 26 29 31 31 32 33 32 31 31 31 30 30 29 29 28 27 26 24 24 23 23 24 25 25 25 25 26 26 26 26 25
25 25 28 30 29 29 27 26 27 25 24 23 25 27 28 30 30 30 31 31 31 31 31 31 30 30 30 28 27 26 25 25 24 24 24 24 25 24 24 26 26 26 26 26
25 25 26 29 29 29 29 26 27 20 26 26 25 26 28 28 31 28 31 30 32 32 32 31 31 31 30 29 28 26 26 25 24 24 24 24 25 25 24 26 26 26 26 26
24 24 27 27 26 29 27 27 26 25 23 26 25 28 28 29 29 29 30 31 33 32 32 32 32 32 31 30 28 26 26 25 25 24 24 24 24 24 24 25 26 26 26 25
19 19 25 27 27 30 29 28 24 24 25 23 29 28 31 31 30 29 29 31 32 33 33 33 32 32 31 30 29 26 26 25 25 25 24 24 24 24 24 25 26 26 26 25
17 17 22 24 26 26 27 27 29 29 23 28 27 26 28 29 31 28 28 28 31 32 31 32 33 32 30 30 29 27 26 25 25 25 25 24 24 23 24 25 24 25 25 25
15 14 19 22 24 26 26 28 28 28 27 29 29 29 30 29 28 29 27 28 28 30 30 31 32 32 31 30 29 27 26 26 26 25 25 24 24 24 23 24 24 24 25 24
14 13 17 19 20 22 25 28 30 27 29 29 30 28 28 27 27 28 28 28 29 29 30 30 31 30 29 29 29 28 27 26 26 25 25 25 24 24 24 23 24 24 23 23
12 14 14 18 22 23 25 27 29 30 30 28 29 27 27 29 26 28 29 28 27 28 30 29 31 31 31 30 29 29 27 26 26 25 25 25 25 24 24 23 23 23 23 23
12 13 14 15 19 20 24 27 29 30 30 30 29 27 28 28 27 27 27 27 28 28 31 29 28 30 31 31 30 29 28 27 25 25 25 25 24 24 24 23 23 22 22 22
12 13 14 14 16 21 26 29 30 30 30 28 30 28 27 30 30 28 25 27 27 27 28 28 27 28 31 32 31 30 29 27 26 25 25 25 24 24 24 23 23 22 22 22
15 15 14 15 16 20 26 27 30 27 28 28 30 29 28 28 29 29 28 26 27 26 27 29 29 30 31 32 31 30 28 27 26 26 25 25 24 24 24 23 23 22 22 21
15 15 18 16 17 19 24 22 23 25 29 30 27 28 27 26 27 30 27 28 28 28 26 27 28 29 30 30 31 29 27 27 26 26 26 25 25 24 24 23 23 23 23 23
13 13 14 16 17 18 21 20 22 25 29 27 25 28 24 26 29 28 26 29 28 28 29 29 28 26 29 30 29 28 27 27 27 27 26 26 25 24 24 24 23 23 22 23
14 15 14 16 17 18 18 20 20 19 19 23 24 23 23 24 23 25 25 27 28 29 28 27 24 25 28 30 29 28 27 28 28 28 27 26 25 24 24 24 23 23 22 22
15 15 15 18 19 17 18 18 18 18 18 21 24 23 24 23 23 22 22 22 21 21 21 22 22 22 23 26 28 26 28 28 28 27 26 26 25 25 25 24 23 22 22 22
15 15 16 18 19 17 18 17 17 17 18 19 20 21 23 21 21 20 21 20 21 21 21 21 21 20 20 21 23 24 25 27 27 26 26 26 25 24 24 23 23 23 23 22
12 14 16 18 17 18 18 17 16 18 18 19 19 18 18 20 19 20 20 20 20 20 20 20 21 21 21 21 20 21 23 24 26 25 25 24 23 23 23 21 22 23 22 22
13 15 16 16 16 16 16 16 16 17 17 17 18 18 18 17 17 18 18 18 19 19 19 20 19 20 20 20 20 21 21 22 22 20 19 19 18 16 15 17 17 18 19 19

GFSCGP_925_temp_036.txt.gz
Temp
23 22 22 23 24 26 26 28 29 29 30 30 27 27 26 27 27 27 26 25 25 25 25 25 25 24 23 23 23 23 23 23 23 23 22 22 23 23 24 25 26 26 26 25
22 23 24 24 24 26 26 26 26 28 30 31 29 28 27 27 27 27 27 26 26 26 25 25 25 25 24 23 23 23 24 24 23 24 24 23 24 24 24 25 25 25 25 25
25 24 25 25 24 25 25 25 26 27 29 29 28 27 26 27 28 28 28 27 27 26 26 25 25 25 25 24 23 23 24 24 24 24 23 23 23 23 24 24 25 25 25 25
24 26 26 24 25 25 22 25 28 28 27 27 28 26 25 26 27 27 27 27 27 27 27 26 26 25 25 24 24 23 23 23 24 24 23 23 23 22 23 24 25 25 25 25
25 24 25 26 27 26 26 28 27 28 26 27 27 26 25 25 26 27 27 28 28 28 28 27 26 26 26 25 24 24 24 24 24 24 24 23 23 24 24 24 25 25 25 25
25 25 27 26 27 27 27 28 24 22 23 23 26 26 24 24 27 27 28 28 28 28 28 28 27 27 26 26 25 24 23 23 23 23 24 23 23 23 24 24 25 25 25 25
26 26 27 27 26 26 26 24 22 23 22 26 24 25 29 26 29 29 29 29 29 29 29 28 28 26 26 26 25 24 23 23 23 23 23 23 24 24 25 25 26 25 25 25
24 24 26 26 26 25 25 22 20 22 22 25 22 25 26 28 29 30 30 30 30 29 29 28 28 28 27 26 26 24 23 23 23 23 23 23 24 24 24 25 26 26 26 26
23 24 27 27 27 28 23 25 24 22 22 22 23 25 29 29 28 29 30 30 30 30 29 29 29 29 28 27 26 25 24 23 23 23 23 23 23 23 24 25 26 26 26 26
25 24 25 27 28 27 25 24 25 19 24 23 23 25 26 26 28 28 27 29 30 30 30 30 30 29 29 28 26 26 25 24 24 23 23 23 24 24 24 25 26 26 26 25
17 23 25 25 25 27 24 24 23 24 20 23 22 24 24 27 28 31 31 29 30 30 30 30 30 30 30 29 27 26 25 24 24 23 23 23 23 23 23 24 26 26 26 25
16 16 22 24 26 28 29 26 22 22 22 22 21 25 28 28 29 28 30 31 28 29 30 30 31 31 30 29 28 26 25 25 24 24 23 23 23 23 23 24 25 26 26 25
16 16 19 24 25 26 26 26 26 25 20 24 24 25 28 27 29 28 26 26 26 27 27 28 30 30 29 29 28 27 26 25 25 24 23 23 23 23 23 23 25 25 26 25
15 13 16 19 20 19 20 24 25 27 27 27 27 26 29 28 27 27 26 26 27 26 26 27 28 30 29 29 28 27 26 26 25 25 24 23 23 23 23 24 24 25 26 25
13 15 16 17 17 19 20 21 23 24 27 27 28 27 26 26 26 27 26 26 26 27 26 25 28 29 28 28 28 27 26 26 25 25 24 24 23 23 23 23 24 24 24 25
11 14 14 15 19 20 19 21 23 24 25 25 27 26 26 28 25 26 26 27 26 26 26 25 27 28 27 27 27 27 26 25 25 25 24 24 24 23 23 23 23 23 23 23
11 12 13 15 17 18 20 23 24 24 25 26 26 27 28 26 25 26 26 25 26 26 26 25 25 26 27 28 28 27 26 26 25 25 25 24 24 23 23 23 22 23 22 22
11 11 12 13 16 18 22 22 24 26 27 26 26 27 27 29 28 27 26 29 27 26 25 25 27 28 29 30 29 29 27 26 25 25 24 24 23 23 23 23 22 22 22 22
11 11 12 14 14 19 21 22 20 19 22 27 27 27 26 29 29 26 24 24 26 25 25 26 28 30 30 30 30 29 27 26 25 24 24 24 23 23 23 23 23 22 22 22
12 13 13 12 15 17 21 20 21 20 20 24 24 28 28 24 26 28 26 25 24 24 24 23 26 27 28 30 30 28 26 25 24 24 24 24 24 23 23 23 23 23 22 22
10 12 12 14 14 16 19 19 20 22 24 18 18 18 24 25 29 29 26 25 24 25 24 26 26 25 27 28 29 26 26 25 26 25 25 24 24 24 24 23 23 23 23 22
10 11 11 12 13 15 19 19 21 19 18 18 18 18 19 23 24 25 24 25 24 26 24 25 23 21 24 26 27 25 24 27 26 26 25 24 24 24 24 23 23 23 22 22
12 13 12 13 14 16 16 17 17 16 18 18 18 18 19 24 22 22 22 21 21 21 21 21 20 20 21 23 24 23 23 26 26 26 26 25 24 24 24 23 23 22 22 22
12 11 12 14 16 17 17 16 16 17 17 18 18 18 21 21 21 21 21 20 20 20 20 20 21 21 21 21 21 22 24 26 26 26 26 25 25 24 23 23 23 22 22 22
10 10 11 13 15 16 16 16 15 17 18 17 18 18 20 21 21 21 21 20 20 19 20 21 21 21 20 21 21 22 23 24 24 23 23 22 22 20 17 17 19 21 17 21
10 10 11 13 14 16 16 15 16 17 17 17 18 18 19 19 19 19 19 19 18 18 19 19 19 19 18 19 19 20 22 23 20 18 18 17 17 17 17 17 16 17 18 18